Hourly Data Report for June 23, 2022

TORONTO CITY
ONTARIO
Current Station Operator: ECCC - MSC

43°40'00.000" N
79°24'00.000" W
112.50 m
6158355
71508
XTO

Download Data

Hourly Data (June 2022)
Hourly Data Report for June 23, 2022
TIME
LST
Temp Definition
°C
Dew Point Definition
°C
Rel Hum Definition
%
Precip. Amount Definition
mm

Wind Dir Definition
10's deg

Wind Spd Definition
km/h
Visibility Definition
km
Stn Press Definition
kPa
Hmdx Definition


Wind Chill Definition


Weather Definition


00:00 20.0 10.4 54 0.0       99.87     LegendNANA
01:00 18.8 10.2 57 0.0       99.85     LegendNANA
02:00 17.9 10.5 62 0.0       99.82     LegendNANA
03:00 17.3 10.6 65 0.0       99.81     LegendNANA
04:00 16.9 10.6 67 0.0       99.81     LegendNANA
05:00 17.0 10.9 67 0.0       99.83     LegendNANA
06:00 17.5 11.7 69 0.0       99.85     LegendNANA
07:00 18.9 12.8 68 0.0       99.88     LegendNANA
08:00 21.1 13.6 62 0.0       99.92     LegendNANA
09:00 23.0 14.3 58 0.0       99.94 27   LegendNANA
10:00 24.2 14.0 53 0.0       99.98 28   LegendNANA
11:00 26.3 13.6 46 0.0       99.96 29   LegendNANA
12:00 26.8 13.3 43 0.0       99.98 30   LegendNANA
13:00 26.7 14.5 47 0.0       99.99 30   LegendNANA
14:00 25.7 15.1 52 0.0       100.00 30   LegendNANA
15:00 27.6 14.3 44 0.0       99.97 31   LegendNANA
16:00 28.1 11.4 35 0.0       99.94 30   LegendNANA
17:00 27.1 9.8 34 0.0       99.93 28   LegendNANA
18:00 26.4 10.9 38 0.0       99.96 28   LegendNANA
19:00 24.9 10.7 41 0.0       100.00 27   LegendNANA
20:00 23.7 11.4 46 0.0       100.03 26   LegendNANA
21:00 22.3 8.2 40 0.0       100.08     LegendNANA
22:00 21.4 5.7 36 0.0       100.11     LegendNANA
23:00 20.7 7.8 43 0.0       100.14     LegendNANA

Notes on Data Quality.

Legend

  • E = Estimated
  • M = Missing
  • NA = Not Available*
  • [empty] = Indicates an unobserved value
Date modified: